Terminal Aerodrome Forecast
Issued by NWS Houston/Galveston TX

Home | Current Version | Previous Version | Text Only | Print | Product List | Glossary On
Versions: 1 2 3 4 5 6 7 8 9 10 11 12 13 14 15 16 17 18 19 20 21 22 23 24 25 26 27
000
FTUS44 KHGX 202321
TAFHOU
TAF
KHOU 202321Z 2100/2124 11008KT P6SM FEW045 FEW200 SCT250
     FM210300 17002KT P6SM SCT025
     FM211400 15005KT P6SM SCT030 BKN040
     FM211800 16006KT P6SM BKN050=

USA.gov is the U.S. government's official web portal to all federal, state and local government web resources and services.